Cloud_Cover
100 100 100 100 100 100 96 32 100 100 100 100 6 5 0 1 100 100 100 22 56 72 5 0 5 5 5 0 4 3 5 0 0 0 0 0 0 0 0 0 0 0 0 0
100 100 100 100 73 79 35 1 96 100 51 31 5 3 0 21 100 100 53 79 12 5 5 44 45 5 3 0 0 2 0 0 0 0 0 0 1 0 0 0 2 5 26 1
100 100 100 96 52 100 100 15 12 94 7 36 39 6 1 99 100 100 54 5 5 5 5 81 11 5 5 4 1 0 0 0 0 4 5 5 5 1 1 5 5 5 0 1
100 100 100 100 100 100 89 6 0 0 0 57 32 15 5 100 100 100 12 6 13 5 19 43 8 5 5 5 5 0 0 5 5 5 5 5 5 5 5 5 5 3 0 4
100 100 100 100 100 100 100 3 0 0 82 100 100 10 100 100 100 80 54 52 22 12 84 40 51 6 5 5 0 5 5 5 5 5 5 5 8 27 5 5 4 5 4 5
100 100 100 100 100 83 90 0 1 4 100 100 95 46 100 100 100 32 50 78 6 81 55 41 15 26 5 2 1 5 5 5 5 5 6 67 99 1 5 1 0 5 5 5
100 100 100 100 86 17 40 14 43 0 96 100 38 100 100 100 90 81 48 25 45 100 48 35 43 5 5 0 2 5 5 5 29 20 93 100 99 5 1 0 5 5 5 5
100 100 100 100 58 11 89 100 29 5 100 100 100 100 100 100 99 17 19 5 66 90 34 21 5 8 10 5 5 5 5 5 62 98 22 100 100 91 5 5 5 5 5 5
100 100 99 66 60 100 100 86 2 95 100 100 100 100 100 100 69 35 19 12 96 62 9 28 27 6 5 5 5 5 5 5 5 66 81 85 100 20 5 6 5 100 46 5
99 100 89 96 100 100 100 90 100 100 100 100 100 92 92 100 64 66 50 69 75 59 50 91 29 22 5 5 5 70 28 44 49 59 49 95 53 83 47 32 74 89 89 70
100 100 100 100 100 30 96 100 100 100 100 100 100 97 100 88 16 21 98 56 100 99 60 78 36 51 25 8 5 5 14 39 79 61 69 35 26 49 56 60 53 8 16 77
100 100 100 100 78 98 100 100 100 100 100 100 100 100 100 68 9 6 57 42 70 97 100 53 63 96 67 33 71 5 5 8 64 5 5 5 5 51 9 34 98 74 66 87
100 100 100 100 100 100 100 100 100 100 100 100 91 99 100 32 40 24 92 100 100 100 56 37 99 100 25 82 59 6 5 5 5 5 30 5 5 5 5 5 8 87 100 100
100 100 100 92 100 100 100 100 100 100 100 100 96 100 100 25 67 57 69 100 100 67 58 100 100 100 97 50 23 51 5 5 5 5 5 6 5 21 45 70 99 94 24 8
100 100 100 100 100 100 100 100 100 100 100 100 100 100 100 97 33 48 93 100 100 100 95 93 99 94 99 97 92 100 55 16 36 78 89 99 100 100 100 59 21 5 12 17
100 100 100 100 100 100 100 100 100 100 100 100 100 100 100 33 72 84 80 98 100 100 100 100 100 100 100 100 100 100 100 100 100 100 90 24 6 55 100 42 65 63 17 28
89 100 100 100 100 100 100 100 100 100 100 100 96 86 18 24 31 43 43 100 100 100 100 100 100 100 100 100 100 100 100 100 100 96 30 80 91 38 60 34 70 61 83 91
100 100 100 100 100 100 100 100 100 100 100 100 100 83 45 43 97 97 86 90 70 100 100 100 100 100 100 100 100 100 100 86 60 30 50 32 59 77 95 93 100 96 100 100
100 100 100 100 100 100 100 100 100 100 100 100 100 100 100 92 100 93 91 98 100 85 99 100 92 100 100 100 100 100 93 96 97 100 99 97 100 100 100 100 100 100 96 99
100 100 100 100 100 100 100 100 100 100 100 100 100 100 100 100 100 100 99 100 85 99 92 100 100 100 100 100 100 100 100 100 100 100 100 100 100 100 100 100 97 94 100 100
100 100 100 100 100 100 100 100 100 100 100 100 100 100 100 100 100 100 100 100 100 100 100 100 100 100 100 100 100 100 97 100 91 97 100 100 100 99 92 95 100 100 100 98
100 100 100 100 100 100 100 100 100 100 100 100 100 100 100 100 100 100 100 100 100 100 100 100 100 100 100 100 100 100 98 100 100 100 100 100 100 100 100 100 100 79 94 99
100 100 100 100 99 100 100 100 100 100 100 100 100 100 100 100 100 100 100 100 99 88 98 100 100 100 100 100 100 100 100 100 100 100 100 100 100 100 100 100 100 97 88 73
100 100 100 100 100 100 100 100 100 100 100 100 100 100 100 100 100 100 100 100 100 100 100 100 100 100 100 100 100 100 100 100 100 100 100 100 100 100 99 73 13 7 16 39
100 100 100 100 100 100 100 100 100 100 100 100 100 97 90 100 100 100 98 100 100 100 100 94 100 100 100 100 92 99 100 100 100 92 82 48 44 23 23 53 36 6 5 5
100 100 100 100 100 100 100 100 100 100 100 100 100 100 100 100 100 100 99 97 81 96 100 100 100 100 100 100 100 100 100 98 90 97 99 100 82 54 42 8 5 5 11 7
100 100 100 100 100 100 100 100 100 100 100 100 100 100 100 100 100 100 95 97 88 100 100 100 100 100 100 100 100 100 100 100 100 52 44 36 8 5 5 5 4 5 6 62